User: anonymous   Login
Location: Columbia
(38.9520°N, 92.3340°W)
Time: 15:36:48
(UTC-05:00)
Language:

SL-08 RB Rocket - Orbit

View from above orbital plane
View from above orbital plane
View from above satellite
View from above satellite

Ground track
Ground track

The orbit data is extracted from the following two-line orbital elements,

1 26387U 00033D   16241.17625903  .00000065  00000-0  19713-4 0  9995
2 26387  98.0118 306.3096 0026461 185.1290 227.7603 14.68181008864885
Epoch (UTC): 28 August 2016 04:13:48
Eccentricity: 0.0026461
inclination: 98.0118°
perigee height: 648 km
apogee height: 685 km
right ascension of ascending node: 306.3096°
argument of perigee: 185.1290°
revolutions per day: 14.68181008
mean anomaly at epoch: 227.7603°
orbit number at epoch: 86488

The dashed part of the orbit path shows where the satellite is in the earth's shadow,  

DLR